Powrót do katalogu

METEOR 2-6 DEB

AktywnyPO
NORAD 31406·DEBRIS·🇷🇺 Russia

Wystrzelony Sep 9, 1980 z Plesetsk Cosmodrome

Loading…

Następne Przeloty (najbliższe 24 godziny)

TLE

ŚwieżeSource: Space-Track

Epoka: Sep 13, 2026, 21:30 UTC

1 31406U 80073H   26256.89593801  .00003822  00000-0  98033-3 0  9997
2 31406  81.2155 226.9325 0030074 244.0525 115.7568 14.49897484120580

Śledź METEOR 2-6 DEB w czasie rzeczywistym z AllMySat

Download on the App Store